| time (UTC) | temp C | wind direction | speed KPH | gust KPH | rain 1hr cm | rain 24hr cm | rain mn cm | humidity % | barometer mb |
| 20260505100016 | 13 | 114 | 0.0 | 3.2 | 0.00 | 0.00 | 0.00 | 51 | 1008.8 |
| 20260505094518 | 13 | 88 | 0.0 | 4.8 | 0.00 | 0.00 | 0.00 | 51 | 1009.1 |
| 20260505093023 | 13 | 256 | 3.2 | 8.0 | 0.00 | 0.00 | 0.00 | 53 | 1009.2 |
| 20260505091532 | 13 | 210 | 0.0 | 1.6 | 0.00 | 0.00 | 0.00 | 58 | 1009.1 |
| 20260505090039 | 13 | 184 | 0.0 | 0.0 | 0.00 | 0.00 | 0.00 | 58 | 1009.1 |
| 20260505084516 | 13 | 184 | 0.0 | 0.0 | 0.00 | 0.00 | 0.00 | 58 | 1009.1 |
| 20260505083020 | 13 | 184 | 0.0 | 3.2 | 0.00 | 0.00 | 0.00 | 58 | 1009.2 |
| 20260505081526 | 13 | 154 | 0.0 | 0.0 | 0.00 | 0.00 | 0.00 | 58 | 1009.1 |
| 20260505080039 | 14 | 188 | 0.0 | 4.8 | 0.00 | 0.00 | 0.00 | 58 | 1009.1 |
| 20260505074510 | 14 | 113 | 1.6 | 9.7 | 0.00 | 0.00 | 0.00 | 53 | 1009.0 |
| 20260505073027 | 14 | 181 | 0.0 | 4.8 | 0.00 | 0.00 | 0.00 | 55 | 1008.9 |
| 20260505071519 | 14 | 207 | 1.6 | 11.3 | 0.00 | 0.00 | 0.00 | 57 | 1008.7 |
| 20260505070024 | 14 | 113 | 3.2 | 25.7 | 0.00 | 0.00 | 0.00 | 58 | 1008.5 |
| 20260505064508 | 13 | 104 | 4.8 | 20.9 | 0.00 | 0.00 | 0.00 | 59 | 1008.7 |
| 20260505063015 | 13 | 127 | 4.8 | 17.7 | 0.00 | 0.00 | 0.00 | 61 | 1008.7 |
| 20260505061516 | 14 | 89 | 4.8 | 12.9 | 0.00 | 0.00 | 0.00 | 63 | 1008.8 |
| 20260505060033 | 14 | 234 | 4.8 | 14.5 | 0.00 | 0.00 | 0.00 | 60 | 1008.8 |
| 20260505054524 | 14 | 227 | 3.2 | 19.3 | 0.00 | 0.00 | 0.00 | 57 | 1008.7 |
| 20260505053007 | 15 | 113 | 4.8 | 14.5 | 0.00 | 0.00 | 0.00 | 54 | 1008.6 |
| 20260505051517 | 15 | 219 | 9.7 | 19.3 | 0.00 | 0.00 | 0.00 | 52 | 1008.3 |
| 20260505041509 | 17 | 142 | 4.8 | 12.9 | 0.00 | 0.00 | 0.00 | 46 | 1007.6 |
| 20260505040012 | 17 | 136 | 3.2 | 16.1 | 0.00 | 0.00 | 0.00 | 44 | 1007.5 |
| 20260505034524 | 17 | 143 | 3.2 | 8.0 | 0.00 | 0.00 | 0.00 | 42 | 1007.3 |
| 20260505033034 | 17 | 141 | 1.6 | 6.4 | 0.00 | 0.00 | 0.00 | 38 | 1007.1 |
| 20260505031526 | 18 | 119 | 0.0 | 6.4 | 0.00 | 0.00 | 0.00 | 38 | 1007.0 |
| 20260505030012 | 18 | 146 | 0.0 | 3.2 | 0.00 | 0.00 | 0.00 | 38 | 1006.9 |
| 20260505024515 | 18 | 141 | 1.6 | 6.4 | 0.00 | 0.00 | 0.00 | 36 | 1006.9 |
| 20260505023035 | 19 | 160 | 0.0 | 1.6 | 0.00 | 0.00 | 0.00 | 36 | 1006.9 |
| 20260505021527 | 19 | 182 | 0.0 | 3.2 | 0.00 | 0.00 | 0.00 | 34 | 1006.9 |
| 20260505020026 | 20 | 325 | 1.6 | 4.8 | 0.00 | 0.00 | 0.00 | 33 | 1006.8 |
| 20260505014522 | 20 | 331 | 1.6 | 4.8 | 0.00 | 0.00 | 0.00 | 32 | 1006.7 |
| 20260505013014 | 20 | 316 | 1.6 | 6.4 | 0.00 | 0.00 | 0.00 | 30 | 1006.7 |
| 20260505011522 | 20 | 322 | 0.0 | 3.2 | 0.00 | 0.00 | 0.00 | 31 | 1006.8 |
| 20260505010025 | 21 | 180 | 0.0 | 1.6 | 0.00 | 0.00 | 0.00 | 32 | 1006.9 |
| 20260505004526 | 21 | 229 | 0.0 | 3.2 | 0.00 | 0.00 | 0.00 | 33 | 1006.9 |
| 20260505003015 | 21 | 228 | 1.6 | 6.4 | 0.00 | 0.00 | 0.00 | 31 | 1007.1 |
| 20260505001520 | 21 | 229 | 3.2 | 6.4 | 0.00 | 0.00 | 0.00 | 31 | 1007.3 |
| 20260505000025 | 21 | 240 | 1.6 | 9.7 | 0.00 | 0.00 | 0.00 | 33 | 1007.4 |
| 20260504234525 | 21 | 236 | 1.6 | 6.4 | 0.00 | 0.00 | 0.00 | 34 | 1007.5 |
| 20260504233030 | 21 | 276 | 1.6 | 9.7 | 0.00 | 0.00 | 0.00 | 33 | 1007.8 |
| 20260504231516 | 21 | 195 | 1.6 | 6.4 | 0.00 | 0.00 | 0.00 | 34 | 1007.7 |
| 20260504230021 | 21 | 262 | 1.6 | 9.7 | 0.00 | 0.00 | 0.00 | 33 | 1008.0 |
| 20260504224533 | 21 | 165 | 0.0 | 8.0 | 0.00 | 0.00 | 0.00 | 34 | 1008.0 |
| 20260504223028 | 20 | 161 | 1.6 | 6.4 | 0.00 | 0.00 | 0.00 | 36 | 1008.2 |
| 20260504221528 | 20 | 162 | 3.2 | 14.5 | 0.00 | 0.00 | 0.00 | 36 | 1008.3 |
| 20260504220018 | 21 | 330 | 1.6 | 11.3 | 0.00 | 0.00 | 0.00 | 29 | 1008.1 |
| 20260504214526 | 21 | 321 | 3.2 | 16.1 | 0.00 | 0.00 | 0.00 | 29 | 1007.9 |
| 20260504213005 | 22 | 124 | 1.6 | 8.0 | 0.00 | 0.00 | 0.00 | 26 | 1007.6 |
| 20260504211515 | 23 | 115 | 0.0 | 4.8 | 0.00 | 0.00 | 0.00 | 26 | 1007.6 |
| 20260504210025 | 25 | 178 | 0.0 | 3.2 | 0.00 | 0.00 | 0.00 | 23 | 1007.7 |
| 20260504204530 | 25 | 117 | 1.6 | 6.4 | 0.00 | 0.00 | 0.00 | 23 | 1007.7 |
| 20260504203027 | 25 | 202 | 0.0 | 3.2 | 0.00 | 0.00 | 0.00 | 21 | 1007.8 |
| 20260504201504 | 26 | 153 | 0.0 | 6.4 | 0.00 | 0.00 | 0.00 | 22 | 1007.9 |
| 20260504200011 | 26 | 167 | 0.0 | 4.8 | 0.00 | 0.00 | 0.00 | 22 | 1008.0 |
| 20260504194515 | 26 | 108 | 1.6 | 6.4 | 0.00 | 0.00 | 0.00 | 21 | 1008.0 |
| 20260504193020 | 26 | 105 | 3.2 | 8.0 | 0.00 | 0.00 | 0.00 | 20 | 1008.4 |
| 20260504191525 | 26 | 128 | 1.6 | 9.7 | 0.00 | 0.00 | 0.00 | 21 | 1008.4 |
| 20260504190006 | 26 | 130 | 1.6 | 8.0 | 0.00 | 0.00 | 0.00 | 22 | 1008.7 |
| 20260504184512 | 26 | 301 | 4.8 | 9.7 | 0.00 | 0.00 | 0.00 | 21 | 1008.9 |
| 20260504183018 | 26 | 120 | 3.2 | 11.3 | 0.00 | 0.00 | 0.00 | 23 | 1009.0 |
| 20260504181521 | 25 | 295 | 3.2 | 11.3 | 0.00 | 0.00 | 0.00 | 22 | 1009.3 |
| 20260504180028 | 24 | 211 | 3.2 | 9.7 | 0.00 | 0.00 | 0.00 | 23 | 1009.5 |
| 20260504174509 | 24 | 328 | 3.2 | 8.0 | 0.00 | 0.00 | 0.00 | 24 | 1009.5 |
| 20260504173015 | 23 | 39 | 3.2 | 11.3 | 0.00 | 0.00 | 0.00 | 25 | 1009.6 |
| 20260504171518 | 23 | 137 | 3.2 | 9.7 | 0.00 | 0.00 | 0.00 | 26 | 1009.7 |